Location: Shannon
(40.5500°S, 175.4167°E)
Time: 22:19:50
(UTC+00:00)

Cosmos 381 Rocket - Pass Details

Date: 17 November 2025
Orbit: 954 x 994 km, 74.0° (Epoch: 06 December)

Event Time Altitude Azimuth Distance (km) Brightness Sun altitude
Exits shadow 15:09:20 21° 340° (NNW) 2,065 5.7 -16.3°
Maximum altitude 15:13:51 85° 252° (WSW) 997 4.5 -15.7°
Drops below altitude 10° 15:20:15 10° 162° (SSE) 2,747 7.8 -14.8°
Sets 15:22:48 0° 161° (SSE) 3,695 8.7 -14.5°
